Flag for Germany Weather past 2 weeks in Königs Wusterhausen, Brandenburg, Germany

Now
52 °F

Light rain. Partly sunny.


Feels Like: 47 °F
Forecast: 43 / 48 °F
Wind: 16 mph from North

Location: Berlin-Schoenefeld

Current Time: Apr 27, 2015 at 6:12:15 PM

Latest Report: Apr 27, 2015 at 5:50 PM


Visibility: N/A

Pressure: 29.65 "Hg

Humidity: 88%

Dew point: 48 °F

Location of Königs WusterhausenLocation

Historic Weather in Königs Wusterhausen — Graph

°F

Königs Wusterhausen temperature yesterday

Maximum temperature yesterday: 68 °F (at 2:50 PM)
Minimum temperature yesterday: 48 °F (at 5:50 AM)
Average temperature yesterday: 57 °F

Past Weeks' High & Low Weather Summary

 TemperatureHumidityPressure
High73 °F (Apr 25, 1:20 PM)100% (Apr 23, 5:20 AM)30.36 "Hg (Apr 23, 5:20 AM)
Low30 °F (Apr 14, 6:20 AM)21% (Apr 21, 2:50 PM)29.59 "Hg (Apr 27, 5:20 AM)
Average51 °F62%30.05 "Hg
* Reported Apr 12 4:20 PM — Apr 27 4:50 PM, Königs Wusterhausen, Weather by CustomWeather, © 2015

Note: Actual official high and low records may vary slightly from our data, if they occured in-between our weather recording intervals... More about our weather records

Advertising

Königs Wusterhausen weather history for previous 24 hours

 ConditionsComfort  
Time TempWeatherWind HumidityBarometerVisibility
4:50 PM
Mon, Apr 27
52 °FLow clouds.16 mph88%29.65 "HgN/A
4:20 PM52 °FLow clouds.16 mph94%29.65 "Hg4 mi
3:50 PM52 °FLow clouds.15 mph94%29.65 "Hg4 mi
3:20 PM54 °FLight rain. Partly sunny.13 mph94%29.62 "Hg6 mi
2:50 PM57 °FLight rain. Partly sunny.10 mph88%29.62 "HgN/A
2:20 PM57 °FLight rain. Partly sunny.9 mph88%29.62 "HgN/A
1:50 PM59 °FPartly sunny.9 mph82%29.59 "HgN/A
1:20 PM59 °FPartly sunny.7 mph88%29.59 "HgN/A
12:50 PM59 °FLight rain. Partly sunny.1 mph82%29.59 "HgN/A
12:20 PM59 °FPartly sunny.6 mph82%29.59 "HgN/A
11:50 AM59 °FLight rain. Partly sunny.3 mph88%29.59 "HgN/A
11:20 AM57 °FLight rain. Partly sunny.3 mph94%29.59 "HgN/A
10:50 AM55 °FLight rain. Broken clouds.6 mph94%29.59 "HgN/A
10:20 AM55 °FCool.5 mph94%29.59 "HgN/A
9:50 AM54 °FPartly sunny.2 mph94%29.59 "Hg4 mi
9:20 AM54 °FLight rain. Partly sunny.7 mph94%29.59 "Hg4 mi
8:50 AM52 °FLight rain. Partly sunny.3 mph100%29.59 "Hg4 mi
8:20 AM52 °FLight rain. Partly sunny.3 mph94%29.59 "Hg4 mi
7:50 AM50 °FLight rain. Clear.3 mph100%29.59 "Hg6 mi
7:20 AM50 °FLight rain. Clear.2 mph100%29.59 "HgN/A
6:50 AM50 °FPassing clouds.5 mph100%29.59 "HgN/A
6:20 AM50 °FFog.7 mph94%29.59 "HgN/A
5:20 AM48 °FFog.6 mph100%29.59 "Hg5 mi
4:50 AM48 °FFog.6 mph100%29.62 "Hg3 mi
4:20 AM46 °FFog.5 mph100%29.62 "Hg1 mi
3:50 AM46 °FFog.3 mph100%29.65 "Hg1 mi
3:20 AM48 °FFog.1 mph100%29.65 "Hg3 mi
2:50 AM48 °FFog.No wind100%29.65 "Hg1 mi
2:20 AM48 °FFog.No wind100%29.65 "Hg1 mi
1:50 AM50 °FFog.No wind100%29.65 "Hg3 mi
1:20 AM50 °FFog.No wind94%29.68 "Hg4 mi
12:50 AM50 °FFog.No wind100%29.68 "HgN/A
12:20 AM52 °FClear.No wind94%29.68 "Hg10 mi
11:50 PM
Sun, Apr 26
54 °FClear.No wind94%29.68 "Hg10 mi
11:20 PM52 °FClear.2 mph100%29.68 "Hg10 mi
10:50 PM54 °FClear.3 mph94%29.68 "Hg10 mi
10:20 PM50 °FClear.3 mph100%29.68 "Hg10 mi
9:50 PM52 °FClear.2 mph94%29.68 "Hg10 mi
9:20 PM54 °FScattered clouds.No wind94%29.68 "HgN/A
8:50 PM54 °FBroken clouds.2 mph88%29.68 "HgN/A
8:20 PM55 °FScattered clouds.3 mph88%29.68 "HgN/A
7:50 PM57 °FScattered clouds.3 mph82%29.68 "HgN/A
7:20 PM57 °FPartly sunny.3 mph82%29.68 "HgN/A
6:50 PM59 °FPartly sunny.6 mph82%29.68 "HgN/A
6:20 PM59 °FSprinkles. Partly sunny.6 mph88%29.71 "HgN/A
Weather by CustomWeather, © 2015

See weather overviewHow to use our weather pages